Retour au catalogue

STARLINK-37417

ActifCommunicationsSSO
NORAD 68770·PAYLOAD·🇺🇸 United States

Lancé Apr 19, 2026 depuis Vandenberg Space Force Base

Loading…

Prochains Passages (prochaines 24 heures)

TLE

FraisSource: CelesTrak SupGP

Époque: Sep 14, 2026, 22:48 UTC

1 68770C 26086E   26257.95048611  .00021324  00000+0  66203-3 0  2574
2 68770  97.2839 293.4213 0001018  93.0980 208.7457 15.33425410    13

Suivez STARLINK-37417 en temps réel avec AllMySat

Download on the App Store